Hondo, TX

11:52 AM CST on December 05, 2019 (GMT -0600)
Hondo Municipal

Weather History for KHDO - October, 2019

Change the Weather History Date:

Tuesday, October 1, 2019

  Actual Average Record
Temperature  
Mean Temperature 86 °F -  
Max Temperature 96 °F 84 °F 97 °F (2015)
Min Temperature 77 °F 61 °F 50 °F (1996)
Cooling Degree Days 22    
Growing Degree Days 36 (Base 50)    
Moisture  
Dew Point 71 °F    
Average Humidity 72    
Maximum Humidity 90    
Minimum Humidity 36    
Precipitation  
Precipitation 0.17 in - - ()
Sea Level Pressure  
Sea Level Pressure 29.93 in    
Wind  
Wind Speed 12 mph (SE)    
Max Wind Speed 18 mph    
Max Gust Speed 25 mph    
Visibility 9 miles    
Events Rain    
Averages and records for this station are not official NWS values.
T = Trace of Precipitation, MM = Missing Value Source: NWS Daily Summary

Daily Weather History Graph

Daily Weather History Graph

Search for Another Location

Airport or City:

Astronomy

Oct. 01, 2019 Rise Set
Actual Time 7:29 AM CDT 7:22 PM CDT
Civil Twilight 7:06 AM CDT 7:46 PM CDT
Nautical Twilight 6:38 AM CDT 8:13 PM CDT
Astronomical Twilight 6:10 AM CDT 8:41 PM CDT
Moon 10:34 AM CDT (10/1) 9:51 PM CDT (10/1)
Length of Visible Light 12h 40m
Length of Day
11h 52m
Waxing Crescent, 12% of the Moon is Illuminated
Oct 1
Waxing Crescent
Oct 5
First Quarter
Oct 13
Full
Oct 21
Last Quarter
Oct 27
New

Hourly Weather History & Observations

Time (CDT) Temp. Heat Index Dew Point Humidity Pressure Visibility Wind Dir Wind Speed Gust Speed Precip Events Conditions
12:51 AM 81.0 °F 85.8 °F 73.0 °F 77% 29.92 in 10.0 mi SE 12.7 mph - N/A   Overcast
1:51 AM 80.1 °F 84.5 °F 73.9 °F 81% 29.92 in 10.0 mi SE 10.4 mph - N/A   Overcast
2:49 AM 80.6 °F 85.4 °F 73.4 °F 79% 29.97 in 10.0 mi SE 10.4 mph - N/A   Overcast
2:51 AM 80.1 °F 84.5 °F 73.9 °F 81% 29.92 in 10.0 mi SE 13.8 mph - N/A   Overcast
3:44 AM 79.0 °F - 73.9 °F 84% 29.96 in 10.0 mi SSE 11.5 mph - 0.00 in   Mostly Cloudy
3:51 AM 79.0 °F - 73.9 °F 84% 29.91 in 10.0 mi SSE 13.8 mph - 0.00 in   Scattered Clouds
4:29 AM 78.1 °F - 73.9 °F 87% 29.96 in 10.0 mi SE 12.7 mph - N/A   Mostly Cloudy
4:48 AM 78.8 °F - 73.4 °F 83% 29.96 in 10.0 mi SSE 11.5 mph - N/A   Scattered Clouds
4:51 AM 78.1 °F - 73.9 °F 87% 29.91 in 10.0 mi SE 10.4 mph - N/A   Scattered Clouds
5:51 AM 77.0 °F - 73.9 °F 90% 29.91 in 10.0 mi SE 10.4 mph - N/A   Mostly Cloudy
6:32 AM 78.1 °F - 73.9 °F 87% 29.97 in 10.0 mi SE 12.7 mph - 0.00 in   Overcast
6:51 AM 78.1 °F - 73.9 °F 87% 29.92 in 10.0 mi SE 11.5 mph - 0.00 in   Overcast
7:08 AM 78.1 °F - 73.9 °F 87% 29.97 in 10.0 mi SE 11.5 mph - N/A   Overcast
7:51 AM 77.0 °F - 73.9 °F 90% 29.93 in 10.0 mi ESE 10.4 mph - 0.00 in   Mostly Cloudy
8:03 AM 77.0 °F - 73.9 °F 90% 29.98 in 10.0 mi SE 11.5 mph - N/A   Mostly Cloudy
8:51 AM 79.0 °F - 73.9 °F 84% 29.94 in 10.0 mi SE 10.4 mph - N/A   Mostly Cloudy
8:59 AM 80.1 °F 84.5 °F 73.9 °F 81% 29.99 in 10.0 mi SE 15.0 mph 21.9 mph N/A   Mostly Cloudy
9:41 AM 80.1 °F 84.2 °F 73.0 °F 79% 30.01 in 10.0 mi SSE 11.5 mph - N/A   Overcast
9:48 AM 78.8 °F - 75.2 °F 89% 30.01 in 2.0 mi SSE 11.5 mph - 0.07 in Rain Heavy Rain
9:51 AM 78.1 °F - 73.9 °F 87% 29.97 in 1.2 mi SSE 10.4 mph 19.6 mph 0.15 in Rain Heavy Rain
10:00 AM 77.0 °F - 73.9 °F 90% 30.01 in 2.5 mi SSE 15.0 mph - 0.01 in Rain Rain
10:05 AM 78.1 °F - 73.9 °F 87% 30.01 in 5.0 mi SSE 12.7 mph - 0.02 in Rain Light Rain
10:51 AM 82.0 °F 89.4 °F 75.9 °F 82% 29.96 in 10.0 mi SSE 12.7 mph 20.7 mph 0.02 in   Scattered Clouds
11:51 AM 87.1 °F 93.6 °F 72.0 °F 61% 29.96 in 10.0 mi SSE 12.7 mph - N/A   Scattered Clouds
12:51 PM 91.9 °F 96.9 °F 69.1 °F 47% 29.94 in 10.0 mi SSE 16.1 mph - N/A   Partly Cloudy
1:51 PM 93.9 °F 97.5 °F 66.9 °F 41% 29.91 in 10.0 mi South 16.1 mph 21.9 mph N/A   Partly Cloudy
2:51 PM 95.0 °F 97.4 °F 64.9 °F 37% 29.86 in 10.0 mi ESE 13.8 mph 20.7 mph N/A   Scattered Clouds
3:51 PM 96.1 °F 98.8 °F 64.9 °F 36% 29.84 in 10.0 mi SE 18.4 mph 25.3 mph N/A   Mostly Cloudy
4:51 PM 93.0 °F 94.6 °F 64.0 °F 38% 29.83 in 10.0 mi SE 16.1 mph - N/A   Partly Cloudy
5:51 PM 93.0 °F 95.0 °F 64.9 °F 39% 29.83 in 10.0 mi SE 18.4 mph - N/A   Mostly Cloudy
6:51 PM 90.0 °F 91.7 °F 64.9 °F 43% 29.83 in 10.0 mi SE 13.8 mph 23.0 mph N/A   Overcast
7:51 PM 88.0 °F 89.6 °F 64.9 °F 46% 29.84 in 10.0 mi SE 11.5 mph - N/A   Mostly Cloudy
8:51 PM 86.0 °F 87.6 °F 64.9 °F 49% 29.86 in 10.0 mi SE 12.7 mph - N/A   Clear
9:51 PM 82.9 °F 85.0 °F 66.0 °F 56% 29.87 in 10.0 mi SE 13.8 mph - N/A   Clear
10:51 PM 81.0 °F 83.3 °F 66.9 °F 62% 29.89 in 10.0 mi SE 12.7 mph - N/A   Clear
11:51 PM 80.1 °F 83.2 °F 70.0 °F 71% 29.91 in 10.0 mi SE 11.5 mph - N/A   Partly Cloudy